Regional Weather Roundup
Issued by NWS

Home | Current Version | Previous Version | Text Only | Print | Product List | Glossary On
Versions: 1 2 3 4 5 6 7 8 9 10 11 12 13 14 15 16 17 18 19 20 21 22 23 24 25 26 27 28 29 30 31 32 33 34 35 36 37 38 39 40 41 42 43 44 45 46 47 48 49 50
000
ASUS46 KSEW 280410
RWRWA

WASHINGTON REGIONAL WEATHER ROUNDUP
NATIONAL WEATHER SERVICE SEATTLE WA
800 PM PST TUE JAN 27 2015

NOTE:"FAIR" INDICATES FEW OR NO CLOUDS BELOW 12,000 FEET WITH NO
SIGNIFICANT WEATHER AND/OR OBSTRUCTIONS TO VISIBILITY.

WAZ505-507>509-280500-
SEATTLE, TACOMA, EVERETT, AND VICINITY

CITY           SKY/WX    TMP DP  RH WIND       PRES   REMARKS
EVERETT        CLOUDY    46  43  89 N9G16     30.19R
BOEING FIELD   CLOUDY    53  48  83 CALM      30.19R FOG
RENTON         CLOUDY    50  49  96 N3        30.18R
SEATAC AIRPORT CLOUDY    50  48  93 CALM      30.19R
JBLM-MCCHORD   CLOUDY    50  50  99 SW6       30.19R
PUYALLUP       CLOUDY    52  50  93 VRB6      30.19R
BREMERTON      CLOUDY    46  46 100 S6        30.21R
JBLM-FT LEWIS  CLOUDY    50  50  99 S6        30.18R
TACOMA NARROWS CLOUDY    50  45  83 SW6       30.19R
$$

WAZ001-503-506-510-514-515-280500-
NORTH INTERIOR

CITY           SKY/WX    TMP DP  RH WIND       PRES   REMARKS
BELLINGHAM     CLOUDY    49  44  83 S7        30.18R
FRIDAY HARBOR  MOCLDY    41  39  93 CALM      30.19R
EASTSOUND      PTCLDY    43  43 100 CALM      30.17R FOG
PORT ANGELES   CLOUDY    46  38  73 W8        30.20R
NAS WHIDBEY    MOCLDY    50  41  71 SW15      30.20R
ARLINGTON      CLOUDY    46  43  87 N5        30.21R
BURLINGTON     CLOUDY    48  45  87 W5        30.20R
$$

WAZ020-022-039-040-504-511-512-280500-
SOUTHWEST INTERIOR

CITY           SKY/WX    TMP DP  RH WIND       PRES   REMARKS
SHELTON        CLOUDY    47  43  86 SW10      30.18R
OLYMPIA        CLOUDY    49  45  86 SW6       30.20R
CHEHALIS       CLOUDY    50  48  93 CALM      30.21R
KELSO          CLOUDY    48  45  87 SE6       30.25R
VANCOUVER      LGT RAIN  49  47  93 CALM      30.22R FOG
SCAPPOOSE, OR  CLOUDY    47  46  97 CALM      30.22R FOG
PORTLAND, OR   DRIZZLE   49  49 100 E6        30.23R FOG
$$

WAZ021-516-517-280500-
WASHINGTON COAST

CITY           SKY/WX    TMP DP  RH WIND       PRES   REMARKS
FORKS          CLOUDY    44  41  89 CALM      30.22R
HOQUIAM        CLOUDY    49  42  77 W5        30.22R
ASTORIA, OR    CLOUDY    49  46  90 NW3       30.22R
$$

WAZ019-023-024-040-518-519-280500-
CASCADE MOUNTAINS AND COLUMBIA GORGE

CITY           SKY/WX    TMP DP  RH WIND       PRES   REMARKS
TROUTDALE, OR  CLOUDY    50  48  93 CALM      30.22R FOG
THE DALLES, OR CLOUDY    51  44  77 NW10      30.16R
$$

WAZ026-027-041>044-520-521-280500-
EAST SLOPES

CITY           SKY/WX    TMP DP  RH WIND       PRES   REMARKS
OMAK           CLOUDY    36  34  92 CALM      30.11R
WENATCHEE      CLOUDY    38  35  89 W5        30.12R
ELLENSBURG     CLOUDY    49  40  71 NW12      30.10R
YAKIMA         CLOUDY    38  35  89 CALM      30.15R
$$

WAZ028-034-035-280500-
COLUMBIA BASIN

CITY           SKY/WX    TMP DP  RH WIND       PRES   REMARKS
EPHRATA        CLOUDY    37  36  96 S3        30.11R FOG
MOSES LAKE     FOG       37  36  96 S6        30.13R VSB 1
PASCO          CLOUDY    39  38  96 CALM      30.17R FOG
HERMISTON, OR  MOCLDY    37  35  92 CALM      30.15R FOG
$$

WAZ036>038-280500-
NORTHEAST WASHINGTON

CITY           SKY/WX    TMP DP  RH WIND       PRES   REMARKS
SPOKANE GEIGER FOG       35  34  96 SW10      30.07R VSB 1/4 WCI  27
SPOKANE FELTS  CLOUDY    39  35  86 SW9       30.09R
FAIRCHILD AFB  FOG       32  32 100 SW8       30.06S VSB 3/4
COEURDALENE,ID MOCLDY    37  36  93 S8        30.04S
DEER PARK      CLOUDY    32  31  96 CALM      30.07R FOG
$$

WAZ029>033-280500-
SOUTHEAST WASHINGTON

CITY           SKY/WX    TMP DP  RH WIND       PRES   REMARKS
PULLMAN        CLOUDY    40  37  89 NW7       30.10R
LEWISTON, ID   CLOUDY    44  39  82 S5        30.08R
WALLA WALLA    MOCLDY    44  38  79 S9        30.13R
PENDLETON, OR  MOCLDY    45  38  76 SW8       30.13R
$$


USA.gov is the U.S. government's official web portal to all federal, state and local government web resources and services.